Location: Herm
(49.4830°N, 2.4500°W)
Time: 07:26:00
(UTC+00:00)

NOAA 15 - Pass Details

Date: 30 October 2021
Orbit: 797 x 813 km, 98.7° (Epoch: 08 December)

Event Time Altitude Azimuth Distance (km) Brightness Sun altitude
Rises 19:52:14 0° 165° (SSE) 3,320 7.6 -20.1°
Reaches altitude 10° 19:54:34 10° 166° (SSE) 2,394 6.9 -20.5°
Maximum altitude 19:59:53 84° 255° (WSW) 824 4.6 -21.4°
Drops below altitude 10° 20:05:14 10° 344° (NNW) 2,414 7.3 -22.3°
Sets 20:07:35 0° 345° (NNW) 3,350 8.1 -22.6°
